Location: Campillo
(40.8621°N, 4.2488°W)
Time: 19:15:58
(UTC+00:00)

Centaur D AC-29 - Pass Details

Date: 28 September 2021
Orbit: 570 x 36267 km, 26.8° (Epoch: 15 October)

Event Time Altitude Azimuth Distance (km) Brightness Sun altitude
Rises 01:19:34 0° 92° (E) 36,868 10.3 -47.9°
Reaches altitude 10° 02:28:58 10° 94° (E) 39,883 10.6 -39.8°
Maximum altitude 06:42:33 37° 100° (E) 27,405 10.5 5.2°
Drops below altitude 10° 08:12:35 10° 82° (E) 13,623 9.0 21.5°
Sets 08:20:49 0° 78° (ENE) 12,524 8.5 23.0°
